Tracking 30995 objects as of 5-Jul-2025
HD Live streaming from Space Station
objects crossing your sky now

COSMOS 621

Track COSMOS 621 now!
10-day predictions
COSMOS 621 is classified as:


NORAD ID: 6989
Int'l Code: 1973-104E
Perigee: 1,412.8 km
Apogee: 1,491.5 km
Inclination: 74.0 °
Period: 114.8 minutes
Semi major axis: 7823 km
RCS: 0.7035 m2 (medium)
Launch date: December 19, 1973
Source: Commonwealth of Independent States (former USSR) (CIS)
Launch site: PLESETSK MISSILE AND SPACE COMPLEX (PKMTR)
Your satellite tracking list
FENGYUN 1C DEB
Track 1 satellite(s)




NASA's NSSDC Master Catalog

Two Line Element Set (TLE):
1 06989U 73104E   25186.49401543  .00000007  00000-0  14006-3 0  9990
2 06989  74.0263 210.9006 0050271   9.9514 103.1429 12.54670195360770
Source of the keplerian elements: AFSPC